Theta_e
331 325 318 313 304 305 303 305 308 308 310 317 323 323 322 327 324 320 347 349 354 358 364 364 363 363 363 362 362 362 362 362 362 362 361 360 361 360 360 361 362 362 360 358 355 353 353 353 353
325 314 313 308 299 298 301 308 307 311 313 316 314 317 320 319 333 338 344 351 356 361 364 363 363 363 363 362 361 360 361 361 361 360 360 360 359 360 361 361 362 361 358 356 354 353 352 352 352
319 313 305 302 298 296 299 306 310 314 315 314 314 325 326 324 334 337 351 354 357 360 364 364 363 363 363 362 360 360 360 360 360 360 359 359 360 360 360 361 361 359 358 356 355 354 353 353 352
312 312 308 297 295 300 303 307 312 312 316 315 315 313 320 340 340 344 354 356 357 359 362 364 362 362 361 362 360 359 359 359 359 359 359 359 360 360 361 361 360 360 357 356 355 354 352 352 353
310 306 296 294 295 300 304 308 310 311 312 313 311 312 314 337 349 352 354 356 355 358 363 364 362 361 361 361 361 359 358 358 358 358 359 359 359 360 360 361 360 359 357 356 355 353 351 351 352
303 302 293 292 295 299 303 307 309 310 312 312 312 312 316 348 347 352 355 355 356 357 362 363 362 361 360 360 359 358 357 357 357 357 358 358 359 359 360 360 360 359 358 356 355 353 351 351 351
303 298 294 294 295 297 300 306 305 308 310 311 313 309 321 338 350 352 354 357 357 359 360 361 361 361 361 359 358 358 357 357 356 355 356 357 358 358 359 359 359 359 358 356 354 353 351 351 351
307 301 296 294 294 295 300 303 307 306 306 314 314 309 311 335 351 352 355 356 356 358 359 359 360 358 355 356 358 357 357 357 356 356 356 356 357 357 357 355 356 356 355 354 353 352 350 350 350
305 299 294 296 295 297 301 300 306 309 308 310 312 312 320 346 350 350 351 353 354 355 357 359 359 358 354 351 355 357 357 357 356 357 357 354 350 354 355 354 356 355 354 354 353 352 351 350 350
303 298 298 302 301 299 302 301 302 303 304 306 308 312 316 342 345 345 347 347 350 351 354 357 358 357 355 352 354 352 352 351 351 351 353 351 354 354 351 353 354 354 354 353 353 353 352 350 346
300 297 302 302 304 303 302 301 303 302 301 305 306 309 312 315 338 341 345 348 349 352 354 355 355 357 355 353 354 352 352 352 353 353 354 353 353 354 351 350 350 351 352 349 350 350 348 348 347
294 298 302 304 305 303 302 304 302 303 304 308 309 311 313 314 321 338 343 347 349 351 352 354 354 354 357 354 353 352 350 350 350 351 352 350 348 350 350 348 348 350 348 348 347 345 347 348 346
297 298 299 301 303 305 306 304 304 305 309 310 311 312 313 315 317 334 346 349 351 350 352 353 354 353 356 355 353 353 351 350 350 351 351 349 346 346 347 348 347 347 348 348 350 349 348 347 347
298 298 299 301 300 301 301 303 304 306 310 311 312 312 314 316 316 333 347 348 350 351 352 352 351 357 357 356 355 353 352 351 351 351 351 351 347 346 345 348 346 345 348 352 351 350 349 348 348
298 295 297 298 300 299 301 296 298 305 310 310 311 313 314 315 317 320 343 348 350 351 354 352 353 357 356 355 354 354 352 351 350 351 354 351 350 348 346 345 344 346 352 353 352 351 351 350 349
295 295 290 296 298 299 299 291 299 304 304 305 307 310 312 314 316 318 337 349 352 352 351 352 352 354 355 354 353 353 352 351 350 351 352 352 351 349 346 346 347 350 351 350 348 348 348 349 349
292 286 289 292 298 298 297 294 300 303 304 304 306 308 310 312 315 323 343 349 351 352 352 350 352 352 352 351 352 353 354 351 351 351 351 353 351 348 345 346 350 352 351 354 354 351 346 347 347
284 287 289 290 295 296 295 295 300 304 303 305 306 308 309 311 313 329 348 350 351 351 353 351 351 352 349 348 351 350 349 350 351 349 350 352 351 348 346 345 351 353 353 353 352 345 346 345 346
290 288 288 293 297 294 294 295 298 301 303 303 305 306 309 311 314 327 349 351 351 351 350 351 349 350 347 347 345 345 345 347 347 348 348 348 349 348 347 346 350 353 353 348 345 343 343 344 342
290 288 287 292 296 295 294 294 298 301 302 303 305 307 308 311 314 330 348 348 347 348 344 348 348 348 346 347 348 347 347 347 348 348 351 351 349 350 351 351 344 342 338 338 339 341 340 339 338
290 288 287 287 292 295 293 291 295 300 304 305 305 307 310 311 312 330 342 345 346 342 342 343 344 346 349 350 348 349 351 351 348 351 350 352 352 353 350 338 336 334 336 334 339 340 338 336 337
286 292 290 289 288 284 293 284 294 298 300 303 305 307 308 311 312 329 338 343 342 338 342 345 347 346 348 350 348 350 347 344 343 340 342 343 339 337 335 335 335 335 337 337 337 337 337 336 335
288 292 290 290 288 288 288 286 291 298 296 300 304 307 309 312 313 327 335 340 342 343 346 347 345 346 347 350 351 349 342 337 332 334 336 336 339 341 340 339 335 336 337 337 335 335 335 336 335
294 290 290 290 287 281 286 287 288 294 297 300 304 307 309 310 311 321 336 340 342 345 345 345 343 343 345 349 351 350 341 332 334 335 337 336 336 337 338 333 333 330 331 328 327 327 325 324 324
292 288 280 278 278 278 289 286 289 297 301 302 304 306 309 311 311 318 330 338 341 341 342 341 341 340 344 347 349 349 343 339 335 333 333 330 331 332 330 330 326 324 322 320 320 318 317 317 316
290 288 281 274 276 279 288 283 289 297 302 304 305 308 309 310 312 314 325 333 339 340 340 340 340 339 342 344 345 345 341 338 337 337 335 331 329 323 322 320 317 317 317 316 314 313 312 313 313
289 285 291 284 285 281 284 288 295 298 299 303 304 306 308 310 311 313 322 331 336 338 339 340 339 340 342 342 343 342 339 337 337 338 337 332 319 318 316 314 313 313 313 312 313 311 310 311 311
292 294 283 284 277 276 282 283 286 293 296 300 303 306 308 310 310 312 320 329 336 337 339 341 336 332 335 338 340 338 342 337 334 325 322 318 316 314 312 310 311 310 310 311 312 311 311 311 312
289 288 289 287 286 280 279 283 294 296 300 300 303 307 308 307 309 312 320 329 335 337 338 330 327 328 327 327 326 324 324 323 322 319 316 314 313 311 309 309 309 308 308 311 312 312 311 312 313
292 289 290 284 282 286 286 287 301 298 302 307 305 307 309 307 314 319 328 332 332 329 326 324 324 322 321 321 319 317 321 321 319 313 310 310 308 309 308 309 309 308 309 310 311 310 310 311 311
Wind_Speed
3 2 1 3 5 3 9 10 2 6 4 1 6 3 5 12 4 1 8 17 16 20 19 22 23 23 20 19 21 21 22 22 21 20 19 18 17 18 16 15 13 12 12 11 10 9 9 9 8
4 4 2 2 8 11 13 11 16 10 3 2 6 4 6 13 13 6 7 11 23 19 18 20 22 22 21 18 19 20 21 21 20 19 19 18 17 16 15 14 12 12 12 11 10 9 9 8 9
4 1 4 5 8 18 16 9 15 13 8 4 4 4 2 4 7 5 9 20 22 20 17 19 21 23 22 20 18 18 19 20 19 18 17 17 16 16 15 13 11 12 11 10 10 9 8 8 7
4 3 2 8 17 19 23 2 10 16 12 7 3 7 3 5 5 2 17 19 23 21 18 21 21 22 21 21 20 20 19 19 19 18 17 15 15 13 13 13 11 10 11 10 9 8 7 7 7
2 1 7 10 20 11 11 15 0 8 5 6 2 5 4 3 6 12 16 17 21 20 17 19 20 21 21 21 21 21 20 19 19 19 17 15 13 12 11 11 10 9 9 8 8 7 6 6 6
5 2 7 19 20 17 16 9 17 14 9 4 5 7 3 3 5 10 14 17 17 20 19 18 19 19 19 19 19 20 20 19 19 18 18 16 14 13 11 11 10 9 9 8 7 7 6 6 6
8 5 17 18 16 22 13 9 18 14 17 17 6 7 1 1 3 10 13 16 17 19 19 17 17 18 19 19 19 19 19 18 17 17 16 16 15 13 11 10 9 8 7 7 7 7 7 7 7
6 4 14 13 16 18 6 12 8 19 21 15 4 8 5 2 8 11 11 14 17 17 18 18 16 16 16 16 18 18 18 18 17 17 16 15 14 12 11 9 8 8 7 6 5 4 4 3 4
4 11 17 21 18 13 8 12 14 5 14 10 8 25 2 12 12 13 13 13 14 14 16 16 17 16 16 16 15 16 17 17 16 16 15 13 10 11 11 7 8 8 6 5 4 3 4 5 6
13 15 21 7 14 13 16 10 8 9 13 19 15 10 5 12 13 15 18 17 18 19 18 16 16 16 15 12 14 14 13 11 11 12 13 10 10 9 9 7 8 7 6 5 5 5 4 6 4
12 21 16 9 15 15 17 13 7 12 16 12 15 12 4 3 11 14 17 20 22 21 16 17 15 14 14 12 10 7 7 8 8 11 11 9 8 7 6 5 5 5 6 5 6 5 5 5 5
14 15 20 9 18 8 16 10 10 19 18 8 13 8 10 11 6 12 16 17 19 21 19 17 17 13 14 10 9 10 8 8 7 9 11 8 6 7 5 4 4 4 3 4 5 4 4 6 6
21 17 15 15 24 16 17 18 14 15 12 16 18 17 15 14 12 11 15 16 17 21 21 19 17 13 14 14 10 10 9 9 9 8 9 7 7 6 6 4 4 4 3 4 3 3 4 5 6
7 11 16 23 19 11 21 23 18 11 20 20 19 21 20 16 11 8 14 17 20 19 20 19 17 17 15 13 13 10 9 10 8 7 9 10 7 7 7 6 6 5 4 3 3 4 5 5 6
7 12 15 18 15 19 13 23 32 18 20 14 14 14 14 14 11 12 17 20 21 20 19 19 18 17 16 14 11 9 8 8 7 7 9 10 9 8 7 6 6 4 3 4 4 4 5 6 6
9 10 12 9 18 11 18 33 8 19 24 27 27 24 20 20 16 14 18 20 20 20 22 19 16 18 16 12 10 8 7 7 7 7 8 10 9 8 8 6 5 4 4 4 3 4 4 6 6
11 14 13 11 12 17 22 20 14 16 16 22 21 22 20 20 15 13 19 22 22 21 20 20 19 19 17 12 10 10 9 7 7 7 7 9 9 9 7 4 2 2 3 1 3 4 2 5 6
14 16 13 11 3 16 22 22 11 7 5 16 15 16 17 18 15 13 21 21 20 19 18 17 14 16 13 10 9 7 7 7 6 5 6 7 6 7 5 3 0 1 3 3 2 1 3 3 6
18 17 18 10 9 9 13 15 18 19 18 17 12 16 14 13 6 12 19 19 16 15 16 16 16 15 12 10 9 7 8 6 6 4 4 4 3 4 4 2 1 2 2 1 1 2 6 4 3
20 20 21 18 17 12 15 13 14 13 17 20 18 15 16 16 9 12 16 16 17 15 9 10 13 14 11 10 7 4 7 4 3 4 4 4 5 4 4 5 5 5 4 8 7 9 4 3 3
21 22 19 17 14 17 16 23 20 17 17 18 19 18 17 15 13 13 18 18 18 18 15 12 15 15 14 11 9 5 7 6 6 6 5 3 5 6 10 9 8 7 5 5 10 5 3 3 2
21 17 17 16 14 14 8 9 9 16 17 18 17 18 19 14 11 11 17 18 18 19 16 16 14 15 12 13 10 10 7 7 6 8 8 8 11 12 9 4 4 6 4 1 8 4 4 3 3
16 12 17 17 14 14 16 9 14 9 19 21 20 21 20 14 12 13 16 19 18 16 17 14 13 14 12 12 12 10 13 11 8 8 12 11 9 9 5 5 2 3 2 2 3 4 1 3 2
8 9 15 14 12 13 18 16 11 13 19 22 21 17 18 14 11 13 12 15 19 16 15 14 15 13 14 13 14 16 16 14 11 9 9 6 6 5 7 8 6 6 5 5 2 3 6 4 5
13 9 6 8 9 10 13 14 18 11 11 10 18 16 16 14 12 13 16 16 17 18 17 15 15 15 16 16 15 17 18 16 16 10 9 9 6 4 6 5 8 7 6 5 4 4 5 7 7
18 14 5 7 9 14 12 12 19 26 20 11 7 16 15 15 14 13 13 14 17 18 16 16 16 17 17 17 18 17 18 11 11 13 13 9 8 9 8 7 8 8 7 5 4 4 7 7 5
10 14 13 7 11 10 11 23 15 12 17 14 15 12 16 18 17 16 14 13 12 14 14 16 17 17 16 17 15 16 15 16 13 12 8 7 9 12 12 6 8 7 6 6 6 7 6 6 6
10 11 7 5 6 11 12 25 15 15 20 20 14 13 15 17 17 14 13 12 11 13 15 16 16 15 16 13 13 11 14 10 9 9 11 13 10 12 11 9 8 8 7 6 6 7 8 7 6
9 12 8 7 7 9 10 10 17 16 5 20 19 15 10 13 16 14 13 13 15 16 16 16 15 16 14 13 13 13 12 13 12 12 11 11 12 9 10 8 8 8 8 8 8 9 8 6 5
15 14 15 7 12 7 8 3 2 21 14 9 16 15 7 13 14 15 16 16 16 16 16 16 15 16 14 14 14 14 14 15 14 14 13 10 11 9 10 9 9 8 8 10 10 7 4 5 6
Wind_Direction
258 179 201 190 229 243 232 223 261 207 230 247 134 175 247 262 231 40 327 185 134 152 156 150 146 145 146 145 141 136 134 133 135 138 142 144 144 144 147 145 145 143 139 137 134 132 128 128 127
180 149 148 138 232 220 230 209 208 205 161 189 270 199 262 266 241 139 113 146 150 152 157 153 148 145 144 145 139 135 136 136 138 140 144 146 147 146 144 141 143 143 143 141 139 136 135 136 135
149 58 187 206 222 225 240 200 226 226 233 275 290 261 191 255 265 121 146 153 149 152 160 150 151 146 145 144 140 138 138 137 137 141 145 146 147 147 143 141 142 146 147 147 145 144 141 144 144
165 157 143 230 220 232 233 222 219 220 247 231 251 272 252 1 354 77 146 156 149 151 159 150 149 144 145 146 145 142 140 138 140 143 145 146 146 145 141 140 146 149 149 150 148 145 145 150 150
90 186 216 231 234 241 239 240 200 197 204 192 123 242 263 25 92 130 143 157 153 149 158 154 149 145 146 147 146 144 143 144 145 145 145 144 142 141 140 142 148 152 154 156 152 147 145 150 159
171 234 219 228 227 230 238 235 240 249 249 242 265 268 264 64 115 140 146 154 154 151 156 155 148 145 145 146 148 146 146 148 148 146 145 145 144 144 149 149 154 159 166 168 163 160 162 168 175
229 210 229 241 241 235 232 200 229 231 248 241 265 278 15 355 156 151 154 152 156 155 153 157 160 150 148 150 151 151 148 149 149 146 147 147 147 149 156 155 155 158 162 169 177 180 187 190 194
215 234 236 225 221 246 228 213 223 220 235 250 231 247 206 136 155 146 152 157 160 161 159 159 161 161 160 159 155 155 152 151 149 149 149 149 152 154 158 156 163 169 177 184 195 199 211 225 230
167 230 235 224 223 217 199 211 207 206 221 205 226 242 97 144 152 149 153 161 165 168 165 164 163 167 166 165 160 155 156 150 153 151 150 151 169 170 167 173 163 184 190 197 212 220 228 235 237
207 228 234 241 227 226 222 199 174 205 215 227 226 241 155 148 174 174 174 172 178 176 173 169 168 168 168 165 162 165 162 165 166 165 165 172 173 177 183 179 193 193 201 213 227 237 252 246 250
224 241 234 228 235 240 247 229 230 239 237 211 225 227 259 291 202 199 194 187 184 180 173 173 168 172 174 169 165 165 165 165 168 169 169 176 177 180 188 188 195 200 195 218 210 219 235 244 257
259 251 255 262 237 238 245 245 224 234 235 228 248 267 287 281 276 220 205 194 187 182 177 173 173 168 179 171 175 169 170 169 171 176 174 172 183 184 190 198 193 203 207 218 231 238 255 265 276
249 260 274 252 252 248 254 247 252 247 237 244 263 275 270 270 277 242 213 195 191 188 179 177 175 172 178 179 176 179 177 176 172 175 178 181 185 185 189 199 203 221 216 226 249 275 290 291 286
277 283 268 258 257 254 253 259 245 240 236 240 249 257 265 266 259 246 204 195 190 192 188 176 175 176 176 180 177 179 180 174 175 180 183 185 188 186 189 197 205 214 223 253 288 295 299 303 302
274 281 279 249 249 242 245 262 238 242 251 250 231 241 255 255 251 252 214 201 192 194 187 181 175 176 176 178 177 182 182 178 180 185 185 191 194 192 198 206 213 210 213 240 244 262 277 278 275
269 262 261 247 223 238 204 251 241 226 220 238 247 254 254 261 261 258 222 204 194 189 188 181 175 176 175 173 177 184 182 184 185 187 190 195 196 196 199 208 210 195 214 242 273 276 269 271 275
242 260 255 278 244 216 214 249 247 241 220 233 233 236 242 252 251 246 204 195 192 190 184 180 179 178 175 174 176 184 181 189 186 192 194 192 197 203 210 213 221 260 257 233 291 281 256 312 291
244 238 241 254 28 224 231 240 239 226 261 232 228 232 236 239 242 220 195 190 188 184 184 184 179 179 172 174 179 176 176 182 185 195 204 193 203 204 194 198 125 304 297 123 208 276 39 304 302
258 256 252 223 228 312 252 257 250 257 262 253 240 238 235 242 248 211 193 189 175 169 174 186 185 179 169 173 177 187 183 175 183 186 184 201 207 181 178 193 153 26 275 343 273 43 4 309 308
243 249 250 257 266 263 274 270 267 251 251 245 244 240 240 241 221 191 183 163 158 162 161 184 199 180 181 178 160 179 154 165 144 119 115 142 154 145 104 113 89 54 328 350 5 56 306 260 358
234 237 241 243 242 261 270 279 255 240 237 246 237 238 240 231 211 185 171 168 163 163 165 164 207 193 181 173 146 100 115 100 117 99 79 119 147 134 114 94 85 39 312 25 339 292 242 288 265
236 230 237 242 234 244 230 274 211 217 217 224 231 228 231 222 207 193 176 172 174 161 173 188 190 176 177 162 147 115 111 102 80 87 84 75 76 77 80 80 45 122 95 43 272 316 273 237 282
244 231 223 231 251 249 233 252 253 254 214 216 217 220 225 219 204 190 181 173 187 175 177 175 176 175 151 151 137 109 102 96 95 88 82 77 78 77 146 137 249 152 176 199 295 304 255 27 354
241 239 222 227 229 248 230 227 234 221 215 216 218 214 221 217 205 201 185 174 176 177 176 174 168 141 145 137 121 116 117 113 105 99 100 95 93 86 96 105 120 93 57 67 75 53 53 56 56
177 178 185 206 210 246 203 221 237 202 238 257 221 204 208 210 200 199 174 170 172 170 166 162 143 138 141 133 120 121 118 123 118 124 128 137 133 88 42 67 86 74 91 77 79 80 65 54 52
196 194 202 200 198 222 219 228 233 232 247 270 305 215 198 203 200 202 192 181 166 156 151 143 140 140 138 129 120 120 126 131 133 145 164 151 136 91 88 68 69 74 92 91 98 81 53 42 47
181 210 221 305 233 221 209 238 264 247 232 240 241 227 203 199 197 196 189 187 158 146 145 139 134 134 136 134 136 132 137 140 147 150 118 93 107 105 92 76 76 81 71 60 54 56 53 53 42
236 169 181 216 225 225 203 234 224 193 217 226 235 227 202 193 192 189 186 171 140 137 134 129 119 117 125 129 133 138 145 118 115 90 95 91 85 94 105 99 82 67 53 44 54 60 46 46 35
183 206 209 165 258 230 229 235 210 218 234 212 229 231 195 189 185 176 167 149 136 133 125 111 107 109 106 103 107 102 98 97 104 103 91 93 89 82 84 82 73 60 49 43 52 53 42 36 25
221 220 206 218 204 244 281 312 309 205 202 216 228 214 142 167 171 157 145 132 128 118 114 108 107 105 106 109 103 100 108 116 114 101 93 90 89 82 80 76 71 66 57 48 48 50 50 44 31